CW4438 Weather Reports


Display with metric or nautical units.
time (UTC)temp
F
wind
direction
speed
MPH
gust
MPH
rain 1hr
in
rain 24hr
in
rain mn
in
humidity
%
barometer
mb
20260504223704 77 159 4.0 12.0 0.00 0.00 0.00 53 1005.2
20260504223202 77 182 4.0 11.0 0.00 0.00 0.00 53 1005.2
20260504222703 78 136 3.0 8.0 0.00 0.00 0.00 52 1005.1
20260504222201 78 175 3.0 9.0 0.00 0.00 0.00 55 1005.3
20260504221701 78 123 3.0 9.0 0.00 0.00 0.00 52 1005.3
20260504221201 78 138 4.0 8.0 0.00 0.00 0.00 51 1005.3
20260504220701 78 96 4.0 8.0 0.00 0.00 0.00 53 1005.3
20260504220201 78 92 4.0 10.0 0.00 0.00 0.00 50 1005.3
20260504215702 78 139 4.0 10.0 0.00 0.00 0.00 49 1005.5
20260504215155 79 136 5.0 13.0 0.00 0.00 0.00 52 1005.7
20260504214645 79 128 5.0 13.0 0.00 0.00 0.00 51 1005.8
20260504214139 79 65 4.0 11.0 0.00 0.00 0.00 50 1005.7
20260504213630 79 92 3.0 8.0 0.00 0.00 0.00 50 1005.7
20260504213129 79 156 3.0 8.0 0.00 0.00 0.00 54 1005.8
20260504211629 79 150 4.0 15.0 0.00 0.00 0.00 52 1006.0
20260504211129 79 218 5.0 15.0 0.00 0.00 0.00 51 1006.1
20260504210629 79 149 5.0 13.0 0.00 0.00 0.00 50 1006.2
20260504210129 79 184 4.0 13.0 0.00 0.00 0.00 49 1006.4
20260504205629 79 131 4.0 9.0 0.00 0.00 0.00 50 1006.3
20260504205129 79 161 4.0 10.0 0.00 0.00 0.00 53 1006.3
20260504204129 79 180 5.0 15.0 0.00 0.00 0.00 52 1006.5
20260504203629 80 195 5.0 12.0 0.00 0.00 0.00 48 1006.5
20260504202629 79 167 6.0 16.0 0.00 0.00 0.00 50 1006.6
20260504202130 79 161 6.0 14.0 0.00 0.00 0.00 49 1006.7
20260504201629 79 175 6.0 14.0 0.00 0.00 0.00 51 1006.7
20260504200629 79 149 7.0 16.0 0.00 0.00 0.00 49 1006.8
20260504200129 79 44 7.0 16.0 0.00 0.00 0.00 49 1006.8
20260504195629 79 64 6.0 16.0 0.00 0.00 0.00 52 1006.7
20260504195129 79 104 6.0 16.0 0.00 0.00 0.00 51 1006.9
20260504194629 80 169 5.0 13.0 0.00 0.00 0.00 49 1007.0
20260504193628 80 169 5.0 14.0 0.00 0.00 0.00 54 1007.0
20260504193129 79 129 6.0 15.0 0.00 0.00 0.00 53 1007.3
20260504192631 79 219 6.0 15.0 0.00 0.00 0.00 50 1007.3
20260504192131 79 150 4.0 16.0 0.00 0.00 0.00 52 1007.4
20260504191631 79 106 5.0 16.0 0.00 0.00 0.00 55 1007.3
20260504191130 79 70 6.0 18.0 0.00 0.00 0.00 50 1007.3
20260504185631 79 242 5.0 13.0 0.00 0.00 0.00 53 1007.4
20260504185130 79 134 5.0 17.0 0.00 0.00 0.00 53 1007.5
20260504184631 78 121 5.0 17.0 0.00 0.00 0.00 55 1007.5
20260504183137 78 152 5.0 16.0 0.00 0.00 0.00 53 1007.6
20260504182639 78 188 5.0 10.0 0.00 0.00 0.00 54 1007.7
20260504182133 78 190 5.0 10.0 0.00 0.00 0.00 54 1007.7
20260504181630 78 171 5.0 16.0 0.00 0.00 0.00 58 1007.9
20260504181130 78 240 6.0 16.0 0.00 0.00 0.00 53 1007.9
20260504180633 77 245 5.0 14.0 0.00 0.00 0.00 55 1008.0
20260504180131 77 179 4.0 12.0 0.00 0.00 0.00 55 1008.1
20260504175630 77 151 5.0 14.0 0.00 0.00 0.00 59 1008.1
20260504175129 77 217 5.0 14.0 0.00 0.00 0.00 53 1008.2
20260504174629 77 192 5.0 11.0 0.00 0.00 0.00 54 1008.2
20260504174129 76 269 5.0 11.0 0.00 0.00 0.00 56 1008.2
20260504173130 76 157 6.0 17.0 0.00 0.00 0.00 55 1008.5
20260504172629 76 139 5.0 10.0 0.00 0.00 0.00 55 1008.6
20260504172129 76 171 5.0 13.0 0.00 0.00 0.00 55 1008.6
20260504171629 76 96 6.0 16.0 0.00 0.00 0.00 54 1008.6
20260504171129 76 196 6.0 16.0 0.00 0.00 0.00 51 1008.6
20260504170629 76 159 5.0 15.0 0.00 0.00 0.00 53 1008.5
20260504170129 76 5 4.0 15.0 0.00 0.00 0.00 56 1008.7
20260504160129 74 165 4.0 10.0 0.00 0.00 0.00 54 1009.1
20260504151129 72 209 6.0 14.0 0.00 0.00 0.00 53 1009.3
20260504150629 71 120 5.0 19.0 0.00 0.00 0.00 56 1009.4
20260504150129 71 117 6.0 19.0 0.00 0.00 0.00 56 1009.4
20260504141129 69 111 5.0 14.0 0.00 0.00 0.00 58 1009.7
20260504140629 68 148 4.0 14.0 0.00 0.00 0.00 58 1009.9
20260504140128 68 131 4.0 11.0 0.00 0.00 0.00 59 1009.9
20260504130629 63 225 4.0 9.0 0.00 0.00 0.00 65 1010.2
20260504120128 60 185 3.0 6.0 0.00 0.00 0.00 67 1010.1
20260504110629 61 197 3.0 7.0 0.00 0.00 0.00 64 1010.0
20260504110128 61 265 3.0 7.0 0.00 0.00 0.00 64 1010.0
20260504100126 62 222 3.0 7.0 0.00 0.00 0.00 62 1010.3
20260504081602 64 266 4.0 10.0 0.00 0.00 0.00 58 1010.7
20260504081102 64 144 3.0 10.0 0.00 0.00 0.00 58 1010.9
20260504080602 64 247 3.0 7.0 0.00 0.00 0.00 58 1010.9
20260504050531 67 186 3.0 6.0 0.00 0.00 0.00 56 1012.3
20260504045530 67 186 3.0 6.0 0.00 0.00 0.00 56 1012.4
20260504045031 67 230 3.0 6.0 0.00 0.00 0.00 56 1012.5
20260504044530 67 198 3.0 10.0 0.00 0.00 0.00 56 1012.4
20260504044031 67 223 4.0 11.0 0.00 0.00 0.00 55 1012.4
20260504043530 67 207 3.0 11.0 0.00 0.00 0.00 56 1012.4
20260504043031 67 234 3.0 9.0 0.00 0.00 0.00 56 1012.5
20260504042530 67 220 3.0 9.0 0.00 0.00 0.00 56 1012.5
20260504042031 67 257 3.0 9.0 0.00 0.00 0.00 56 1012.5
20260504041530 67 184 3.0 9.0 0.00 0.00 0.00 55 1012.5
20260504041031 68 242 2.0 6.0 0.00 0.00 0.00 56 1012.4
20260504040530 68 242 2.0 7.0 0.00 0.00 0.00 55 1012.4
20260504040030 68 30 3.0 7.0 0.00 0.00 0.00 55 1012.4
20260504035530 68 29 3.0 9.0 0.00 0.00 0.00 55 1012.4
20260504035031 69 31 3.0 9.0 0.00 0.00 0.00 54 1012.4
20260504034530 69 32 3.0 6.0 0.00 0.00 0.00 53 1012.4
20260504034030 69 28 3.0 7.0 0.00 0.00 0.00 54 1012.5
20260504033531 69 27 3.0 10.0 0.00 0.00 0.00 54 1012.5
20260504033030 69 32 3.0 10.0 0.00 0.00 0.00 53 1012.5
20260504032531 69 32 3.0 8.0 0.00 0.00 0.00 54 1012.6
20260504031531 69 32 3.0 7.0 0.00 0.00 0.00 54 1012.5
20260504031031 69 15 3.0 7.0 0.00 0.00 0.00 54 1012.5
20260504030539 69 20 3.0 7.0 0.00 0.00 0.00 55 1012.6
20260504025538 68 25 3.0 7.0 0.00 0.00 0.00 55 1012.5
20260504024016 69 29 2.0 5.0 0.00 0.00 0.00 57 1012.3
20260504023003 69 28 3.0 5.0 0.00 0.00 0.00 56 1012.3
20260504022503 69 30 2.0 5.0 0.00 0.00 0.00 56 1012.3
20260504022003 69 28 2.0 5.0 0.00 0.00 0.00 55 1012.2
20260504021503 69 28 2.0 5.0 0.00 0.00 0.00 56 1012.2
20260504021003 69 28 2.0 4.0 0.00 0.00 0.00 56 1012.2
20260504020503 69 30 2.0 7.0 0.00 0.00 0.00 55 1012.2
20260504020003 69 26 2.0 7.0 0.00 0.00 0.00 55 1012.2
20260504015011 69 31 1.0 3.0 0.00 0.00 0.00 54 1012.1
20260504014509 70 28 1.0 3.0 0.00 0.00 0.00 52 1012.2
20260504014007 70 28 1.0 3.0 0.00 0.00 0.00 53 1012.1
20260504013504 70 27 1.0 3.0 0.00 0.00 0.00 52 1012.1
20260504013003 71 28 1.0 3.0 0.00 0.00 0.00 52 1012.1
20260504012501 71 28 1.0 5.0 0.00 0.00 0.00 51 1012.1
20260504012002 71 28 1.0 5.0 0.00 0.00 0.00 49 1012.0
20260504011500 71 26 1.0 4.0 0.00 0.00 0.00 50 1012.0
20260504010500 72 26 1.0 4.0 0.00 0.00 0.00 47 1012.0
20260504010002 73 28 1.0 4.0 0.00 0.00 0.00 46 1012.0
20260504005501 73 23 1.0 5.0 0.00 0.00 0.00 45 1012.0
20260504004501 74 109 1.0 3.0 0.00 0.00 0.00 44 1012.1
20260504003501 75 100 2.0 7.0 0.00 0.00 0.00 42 1012.1
20260504003001 75 119 2.0 7.0 0.00 0.00 0.00 41 1012.1
20260504002501 75 166 2.0 10.0 0.00 0.00 0.00 40 1012.1
20260504002000 76 119 3.0 10.0 0.00 0.00 0.00 39 1012.3
20260504001449 76 142 3.0 8.0 0.00 0.00 0.00 39 1012.3
20260504000948 76 158 3.0 7.0 0.00 0.00 0.00 38 1012.4
20260504000441 76 209 3.0 8.0 0.00 0.00 0.00 41 1012.4
20260503235940 76 153 3.0 8.0 0.00 0.00 0.00 38 1012.4
20260503235439 76 149 2.0 8.0 0.00 0.00 0.00 37 1012.4
20260503234937 77 250 3.0 8.0 0.00 0.00 0.00 39 1012.4
20260503233937 77 156 3.0 8.0 0.00 0.00 0.00 37 1012.4
20260503233435 77 215 4.0 8.0 0.00 0.00 0.00 38 1012.4
20260503231933 77 123 3.0 10.0 0.00 0.00 0.00 37 1012.5
20260503231433 77 140 3.0 9.0 0.00 0.00 0.00 39 1012.5
20260503230934 77 68 4.0 8.0 0.00 0.00 0.00 36 1012.6
20260503230430 77 225 4.0 8.0 0.00 0.00 0.00 36 1012.6
20260503225930 78 169 4.0 11.0 0.00 0.00 0.00 36 1012.6
20260503225430 78 238 3.0 11.0 0.00 0.00 0.00 36 1012.6
20260503224929 78 167 2.0 5.0 0.00 0.00 0.00 40 1012.8
20260503224429 78 237 3.0 8.0 0.00 0.00 0.00 38 1012.7